Location: Sungai Igah
(2.7333°N, 114.2500°E)
Time: 19:05:00
(UTC+00:00)

Cosmos 1470 Rocket - Pass Details

Date: 14 June 2021
Orbit: 602 x 635 km, 82.5° (Epoch: 26 July)

Event Time Altitude Azimuth Distance (km) Brightness Sun altitude
Rises 21:43:45 0° 188° (S) 2,914 6.7 -8.0°
Reaches altitude 10° 21:45:59 10° 190° (S) 2,008 5.9 -7.5°
Maximum altitude 21:50:25 72° 274° (W) 667 3.6 -6.5°
Drops below altitude 10° 21:54:52 10° 358° (N) 2,009 6.5 -5.5°
Sets 21:57:06 0° 0° (N) 2,915 7.4 -5.0°
